PRIVATE WETTERSTATION BILLIGHEIM-ALLFELD                       ZURCK
Wetterdaten: Donnerstag, 15.06.2017
Datum Zeit Temp. A. Temp. A. min Temp. A. max Feuchte A. Luftdruck Regen Wind Richtung Richtung Sonnenschein ET Solar Taupunkt Windchill Windben Empfang
15.06.2017 00:00 15,6 C 15,6 C 15,8 C 81 % 1014,5 hPa 0,0 l/m 0,0 km/h (0 Bft) N 0 0 min 0,025 mm 0 W/m 12,3 C 15,6 C 0,0 km/h (0 Bft) 100 %
15.06.2017 00:10 15,4 C 15,4 C 15,6 C 82 % 1014,6 hPa 0,0 l/m 0,0 km/h (0 Bft) N 0 0 min 0,000 mm 0 W/m 12,3 C 15,4 C 0,0 km/h (0 Bft) 100 %
15.06.2017 00:20 15,2 C 15,2 C 15,4 C 82 % 1014,5 hPa 0,0 l/m 0,0 km/h (0 Bft) N 0 0 min 0,000 mm 0 W/m 12,1 C 15,2 C 0,0 km/h (0 Bft) 100 %
15.06.2017 00:30 15,1 C 15,1 C 15,2 C 83 % 1014,5 hPa 0,0 l/m 0,0 km/h (0 Bft) N 0 0 min 0,000 mm 0 W/m 12,2 C 15,1 C 0,0 km/h (0 Bft) 100 %
15.06.2017 00:40 15,0 C 15,0 C 15,1 C 84 % 1014,6 hPa 0,0 l/m 0,0 km/h (0 Bft) N 0 0 min 0,000 mm 0 W/m 12,3 C 15,0 C 0,0 km/h (0 Bft) 100 %
15.06.2017 00:50 14,8 C 14,8 C 15,0 C 84 % 1014,7 hPa 0,0 l/m 1,6 km/h (1 Bft) NW 315 0 min 0,000 mm 0 W/m 12,1 C 14,8 C 4,8 km/h (1 Bft) 100 %
15.06.2017 01:00 14,7 C 14,7 C 14,8 C 85 % 1014,7 hPa 0,0 l/m 3,2 km/h (1 Bft) NW 315 0 min 0,025 mm 0 W/m 12,2 C 14,7 C 4,8 km/h (1 Bft) 100 %
15.06.2017 01:10 14,5 C 14,5 C 14,6 C 85 % 1014,7 hPa 0,0 l/m 4,8 km/h (1 Bft) NW 315 0 min 0,000 mm 0 W/m 12,0 C 14,5 C 6,4 km/h (2 Bft) 100 %
15.06.2017 01:20 14,4 C 14,4 C 14,5 C 85 % 1014,7 hPa 0,0 l/m 3,2 km/h (1 Bft) NW 315 0 min 0,000 mm 0 W/m 11,9 C 14,4 C 4,8 km/h (1 Bft) 100 %
15.06.2017 01:30 14,3 C 14,3 C 14,4 C 86 % 1014,7 hPa 0,0 l/m 1,6 km/h (1 Bft) N-NW 337 0 min 0,000 mm 0 W/m 12,0 C 14,3 C 4,8 km/h (1 Bft) 100 %
15.06.2017 01:40 14,2 C 14,2 C 14,3 C 86 % 1014,8 hPa 0,0 l/m 3,2 km/h (1 Bft) N-NW 337 0 min 0,000 mm 0 W/m 11,9 C 14,2 C 4,8 km/h (1 Bft) 100 %
15.06.2017 01:50 14,1 C 14,1 C 14,2 C 86 % 1014,8 hPa 0,0 l/m 1,6 km/h (1 Bft) N-NW 337 0 min 0,000 mm 0 W/m 11,8 C 14,1 C 4,8 km/h (1 Bft) 100 %
15.06.2017 02:00 14,0 C 14,0 C 14,1 C 86 % 1014,8 hPa 0,0 l/m 0,0 km/h (0 Bft) N 0 0 min 0,025 mm 0 W/m 11,7 C 14,0 C 0,0 km/h (0 Bft) 100 %
15.06.2017 02:10 13,8 C 13,8 C 14,0 C 87 % 1014,8 hPa 0,0 l/m 0,0 km/h (0 Bft) N 0 0 min 0,000 mm 0 W/m 11,7 C 13,8 C 0,0 km/h (0 Bft) 100 %
15.06.2017 02:20 13,7 C 13,7 C 13,8 C 87 % 1014,9 hPa 0,0 l/m 0,0 km/h (0 Bft) N 0 0 min 0,000 mm 0 W/m 11,6 C 13,7 C 0,0 km/h (0 Bft) 100 %
15.06.2017 02:30 13,6 C 13,6 C 13,7 C 87 % 1014,8 hPa 0,0 l/m 0,0 km/h (0 Bft) N 0 0 min 0,000 mm 0 W/m 11,5 C 13,6 C 0,0 km/h (0 Bft) 100 %
15.06.2017 02:40 13,5 C 13,5 C 13,6 C 87 % 1014,8 hPa 0,0 l/m 0,0 km/h (0 Bft) N 0 0 min 0,000 mm 0 W/m 11,4 C 13,5 C 0,0 km/h (0 Bft) 99 %
15.06.2017 02:50 13,4 C 13,4 C 13,5 C 88 % 1014,8 hPa 0,0 l/m 0,0 km/h (0 Bft) N-NW 337 0 min 0,000 mm 0 W/m 11,5 C 13,4 C 4,8 km/h (1 Bft) 100 %
15.06.2017 03:00 13,3 C 13,3 C 13,4 C 88 % 1014,7 hPa 0,0 l/m 0,0 km/h (0 Bft) N-NW 337 0 min 0,000 mm 0 W/m 11,4 C 13,3 C 1,6 km/h (1 Bft) 100 %
15.06.2017 03:10 13,3 C 13,3 C 13,3 C 88 % 1014,6 hPa 0,0 l/m 1,6 km/h (1 Bft) N-NW 337 0 min 0,000 mm 0 W/m 11,4 C 13,3 C 4,8 km/h (1 Bft) 100 %
15.06.2017 03:20 13,2 C 13,2 C 13,3 C 88 % 1014,8 hPa 0,0 l/m 1,6 km/h (1 Bft) N-NW 337 0 min 0,000 mm 0 W/m 11,3 C 13,2 C 3,2 km/h (1 Bft) 100 %
15.06.2017 03:30 13,1 C 13,1 C 13,2 C 88 % 1014,6 hPa 0,0 l/m 1,6 km/h (1 Bft) N-NW 337 0 min 0,000 mm 0 W/m 11,2 C 13,1 C 4,8 km/h (1 Bft) 100 %
15.06.2017 03:40 13,1 C 13,0 C 13,1 C 88 % 1014,7 hPa 0,0 l/m 0,0 km/h (0 Bft) N-NW 337 0 min 0,000 mm 0 W/m 11,2 C 13,1 C 1,6 km/h (1 Bft) 100 %
15.06.2017 03:50 13,0 C 13,0 C 13,1 C 88 % 1014,6 hPa 0,0 l/m 0,0 km/h (0 Bft) N-NW 337 0 min 0,000 mm 0 W/m 11,1 C 13,0 C 3,2 km/h (1 Bft) 100 %
15.06.2017 04:00 12,8 C 12,8 C 13,0 C 88 % 1014,6 hPa 0,0 l/m 0,0 km/h (0 Bft) N-NW 337 0 min 0,000 mm 0 W/m 10,9 C 12,8 C 3,2 km/h (1 Bft) 100 %
15.06.2017 04:10 12,7 C 12,7 C 12,9 C 89 % 1014,5 hPa 0,0 l/m 0,0 km/h (0 Bft) N-NW 337 0 min 0,000 mm 0 W/m 10,9 C 12,7 C 1,6 km/h (1 Bft) 100 %
15.06.2017 04:20 12,7 C 12,7 C 12,7 C 89 % 1014,6 hPa 0,0 l/m 0,0 km/h (0 Bft) N-NW 337 0 min 0,000 mm 0 W/m 10,9 C 12,7 C 1,6 km/h (1 Bft) 100 %
15.06.2017 04:30 12,6 C 12,6 C 12,7 C 89 % 1014,6 hPa 0,0 l/m 0,0 km/h (0 Bft) N-NW 337 0 min 0,000 mm 0 W/m 10,8 C 12,6 C 1,6 km/h (1 Bft) 100 %
15.06.2017 04:40 12,5 C 12,5 C 12,6 C 89 % 1014,6 hPa 0,0 l/m 0,0 km/h (0 Bft) N 0 0 min 0,000 mm 0 W/m 10,7 C 12,5 C 0,0 km/h (0 Bft) 91 %
15.06.2017 04:50 12,4 C 12,4 C 12,5 C 89 % 1014,6 hPa 0,0 l/m 0,0 km/h (0 Bft) N-NW 337 0 min 0,000 mm 0 W/m 10,6 C 12,4 C 3,2 km/h (1 Bft) 100 %
15.06.2017 05:00 12,3 C 12,3 C 12,4 C 89 % 1014,6 hPa 0,0 l/m 0,0 km/h (0 Bft) N 0 0 min 0,000 mm 0 W/m 10,5 C 12,3 C 0,0 km/h (0 Bft) 100 %
15.06.2017 05:10 12,2 C 12,2 C 12,3 C 89 % 1014,6 hPa 0,0 l/m 0,0 km/h (0 Bft) N-NW 337 0 min 0,000 mm 0 W/m 10,4 C 12,2 C 1,6 km/h (1 Bft) 100 %
15.06.2017 05:20 12,2 C 12,2 C 12,2 C 89 % 1014,5 hPa 0,0 l/m 0,0 km/h (0 Bft) N 0 0 min 0,000 mm 0 W/m 10,4 C 12,2 C 0,0 km/h (0 Bft) 100 %
15.06.2017 05:30 12,2 C 12,2 C 12,2 C 89 % 1014,6 hPa 0,0 l/m 0,0 km/h (0 Bft) N 0 0 min 0,000 mm 7 W/m 10,4 C 12,2 C 0,0 km/h (0 Bft) 100 %
15.06.2017 05:40 12,1 C 12,1 C 12,2 C 89 % 1014,7 hPa 0,0 l/m 0,0 km/h (0 Bft) N 0 0 min 0,000 mm 11 W/m 10,3 C 12,1 C 0,0 km/h (0 Bft) 100 %
15.06.2017 05:50 12,1 C 12,1 C 12,1 C 90 % 1014,7 hPa 0,0 l/m 0,0 km/h (0 Bft) N 0 0 min 0,000 mm 14 W/m 10,5 C 12,1 C 0,0 km/h (0 Bft) 100 %
15.06.2017 06:00 12,1 C 12,1 C 12,1 C 90 % 1014,8 hPa 0,0 l/m 0,0 km/h (0 Bft) N-NW 337 0 min 0,000 mm 18 W/m 10,5 C 12,1 C 3,2 km/h (1 Bft) 100 %
15.06.2017 06:10 12,1 C 12,1 C 12,1 C 90 % 1014,9 hPa 0,0 l/m 0,0 km/h (0 Bft) N 0 0 min 0,000 mm 21 W/m 10,5 C 12,1 C 0,0 km/h (0 Bft) 100 %
15.06.2017 06:20 12,2 C 12,1 C 12,2 C 90 % 1014,8 hPa 0,0 l/m 0,0 km/h (0 Bft) N 0 0 min 0,000 mm 25 W/m 10,6 C 12,2 C 0,0 km/h (0 Bft) 100 %
15.06.2017 06:30 12,2 C 12,2 C 12,2 C 90 % 1014,8 hPa 0,0 l/m 0,0 km/h (0 Bft) N 0 0 min 0,000 mm 28 W/m 10,6 C 12,2 C 0,0 km/h (0 Bft) 100 %
15.06.2017 06:40 12,3 C 12,2 C 12,3 C 90 % 1014,8 hPa 0,0 l/m 0,0 km/h (0 Bft) N-NW 337 0 min 0,000 mm 33 W/m 10,7 C 12,3 C 1,6 km/h (1 Bft) 100 %
15.06.2017 06:50 12,4 C 12,3 C 12,4 C 90 % 1014,8 hPa 0,0 l/m 0,0 km/h (0 Bft) N 0 0 min 0,000 mm 37 W/m 10,8 C 12,4 C 0,0 km/h (0 Bft) 100 %
15.06.2017 07:00 12,6 C 12,4 C 12,6 C 90 % 1014,8 hPa 0,0 l/m 0,0 km/h (0 Bft) N 0 0 min 0,025 mm 40 W/m 11,0 C 12,6 C 0,0 km/h (0 Bft) 100 %
15.06.2017 07:10 12,8 C 12,6 C 12,8 C 90 % 1014,7 hPa 0,0 l/m 0,0 km/h (0 Bft) N 0 0 min 0,000 mm 46 W/m 11,2 C 12,8 C 0,0 km/h (0 Bft) 100 %
15.06.2017 07:20 13,1 C 12,8 C 13,1 C 90 % 1014,7 hPa 0,0 l/m 0,0 km/h (0 Bft) N 0 0 min 0,000 mm 47 W/m 11,5 C 13,1 C 0,0 km/h (0 Bft) 100 %
15.06.2017 07:30 13,3 C 13,1 C 13,3 C 90 % 1014,7 hPa 0,0 l/m 0,0 km/h (0 Bft) N 0 0 min 0,000 mm 53 W/m 11,7 C 13,3 C 0,0 km/h (0 Bft) 100 %
15.06.2017 07:40 13,7 C 13,3 C 13,7 C 90 % 1014,7 hPa 0,0 l/m 0,0 km/h (0 Bft) N 0 0 min 0,000 mm 56 W/m 12,1 C 13,7 C 0,0 km/h (0 Bft) 100 %
15.06.2017 07:50 14,1 C 13,7 C 14,1 C 90 % 1014,6 hPa 0,0 l/m 0,0 km/h (0 Bft) N 0 0 min 0,000 mm 63 W/m 12,5 C 14,1 C 0,0 km/h (0 Bft) 100 %
15.06.2017 08:00 14,4 C 14,1 C 14,4 C 90 % 1014,6 hPa 0,0 l/m 0,0 km/h (0 Bft) N 0 0 min 0,025 mm 70 W/m 12,8 C 14,4 C 0,0 km/h (0 Bft) 100 %
15.06.2017 08:10 14,9 C 14,5 C 14,9 C 90 % 1014,7 hPa 0,0 l/m 0,0 km/h (0 Bft) N-NW 337 0 min 0,000 mm 81 W/m 13,3 C 14,9 C 1,6 km/h (1 Bft) 100 %
15.06.2017 08:20 15,4 C 14,9 C 15,4 C 89 % 1014,6 hPa 0,0 l/m 0,0 km/h (0 Bft) N 0 10 min 0,000 mm 362 W/m 13,6 C 15,4 C 0,0 km/h (0 Bft) 100 %
15.06.2017 08:30 16,4 C 15,5 C 16,4 C 87 % 1014,5 hPa 0,0 l/m 0,0 km/h (0 Bft) N 0 10 min 0,000 mm 401 W/m 14,2 C 16,4 C 0,0 km/h (0 Bft) 100 %
15.06.2017 08:40 17,6 C 16,4 C 17,6 C 84 % 1014,6 hPa 0,0 l/m 0,0 km/h (0 Bft) N 0 10 min 0,000 mm 438 W/m 14,9 C 17,6 C 0,0 km/h (0 Bft) 100 %
15.06.2017 08:50 18,8 C 17,7 C 18,8 C 80 % 1014,6 hPa 0,0 l/m 0,0 km/h (0 Bft) N 0 10 min 0,000 mm 473 W/m 15,3 C 18,8 C 0,0 km/h (0 Bft) 100 %
15.06.2017 09:00 19,7 C 18,8 C 19,7 C 80 % 1014,5 hPa 0,0 l/m 0,0 km/h (0 Bft) N-NW 337 10 min 0,178 mm 504 W/m 16,1 C 19,7 C 1,6 km/h (1 Bft) 100 %
15.06.2017 09:10 20,7 C 19,8 C 20,7 C 73 % 1014,6 hPa 0,0 l/m 0,0 km/h (0 Bft) N 0 10 min 0,000 mm 533 W/m 15,7 C 20,7 C 0,0 km/h (0 Bft) 100 %
15.06.2017 09:20 21,2 C 20,7 C 21,2 C 73 % 1014,6 hPa 0,0 l/m 0,0 km/h (0 Bft) N 360 10 min 0,000 mm 561 W/m 16,2 C 21,2 C 1,6 km/h (1 Bft) 100 %
15.06.2017 09:30 21,5 C 21,2 C 21,5 C 71 % 1014,6 hPa 0,0 l/m 0,0 km/h (0 Bft) N 360 10 min 0,000 mm 587 W/m 16,0 C 21,5 C 1,6 km/h (1 Bft) 100 %
15.06.2017 09:40 21,8 C 21,5 C 21,8 C 68 % 1014,6 hPa 0,0 l/m 0,0 km/h (0 Bft) N 0 10 min 0,000 mm 612 W/m 15,6 C 21,8 C 0,0 km/h (0 Bft) 100 %
15.06.2017 09:50 22,9 C 21,8 C 22,9 C 67 % 1014,7 hPa 0,0 l/m 1,6 km/h (1 Bft) S-SW 202 10 min 0,000 mm 636 W/m 16,4 C 22,9 C 8,0 km/h (2 Bft) 100 %
15.06.2017 10:00 23,9 C 22,9 C 23,9 C 61 % 1014,7 hPa 0,0 l/m 0,0 km/h (0 Bft) S-SW 202 10 min 0,356 mm 663 W/m 15,9 C 23,9 C 1,6 km/h (1 Bft) 100 %
15.06.2017 10:10 23,9 C 23,9 C 24,1 C 65 % 1014,8 hPa 0,0 l/m 0,0 km/h (0 Bft) N 0 10 min 0,000 mm 684 W/m 16,9 C 23,9 C 0,0 km/h (0 Bft) 100 %
15.06.2017 10:20 24,0 C 23,9 C 24,0 C 61 % 1014,6 hPa 0,0 l/m 0,0 km/h (0 Bft) S 180 10 min 0,000 mm 710 W/m 16,0 C 24,0 C 1,6 km/h (1 Bft) 100 %
15.06.2017 10:30 24,3 C 23,9 C 24,4 C 59 % 1014,7 hPa 0,0 l/m 0,0 km/h (0 Bft) S-SW 202 10 min 0,000 mm 729 W/m 15,8 C 24,3 C 8,0 km/h (2 Bft) 100 %
15.06.2017 10:40 24,8 C 24,3 C 24,8 C 61 % 1014,8 hPa 0,0 l/m 0,0 km/h (0 Bft) S 180 10 min 0,000 mm 758 W/m 16,8 C 24,8 C 3,2 km/h (1 Bft) 100 %
15.06.2017 10:50 25,4 C 24,8 C 25,4 C 57 % 1014,7 hPa 0,0 l/m 0,0 km/h (0 Bft) S 180 10 min 0,000 mm 777 W/m 16,2 C 25,4 C 1,6 km/h (1 Bft) 100 %
15.06.2017 11:00 25,6 C 25,4 C 25,6 C 57 % 1014,8 hPa 0,0 l/m 1,6 km/h (1 Bft) W-SW 247 10 min 0,457 mm 796 W/m 16,4 C 25,6 C 8,0 km/h (2 Bft) 100 %
15.06.2017 11:10 25,8 C 25,6 C 25,8 C 63 % 1014,8 hPa 0,0 l/m 3,2 km/h (1 Bft) SW 225 10 min 0,000 mm 812 W/m 18,2 C 25,8 C 8,0 km/h (2 Bft) 100 %
15.06.2017 11:20 26,2 C 25,8 C 26,2 C 57 % 1014,8 hPa 0,0 l/m 1,6 km/h (1 Bft) S-SW 202 10 min 0,000 mm 830 W/m 17,0 C 26,2 C 8,0 km/h (2 Bft) 100 %
15.06.2017 11:30 26,1 C 25,8 C 26,2 C 60 % 1014,9 hPa 0,0 l/m 0,0 km/h (0 Bft) W 274 10 min 0,000 mm 844 W/m 17,7 C 26,1 C 1,6 km/h (1 Bft) 100 %
15.06.2017 11:40 26,5 C 26,1 C 26,5 C 58 % 1014,8 hPa 0,0 l/m 0,3 km/h (0 Bft) W 279 10 min 0,000 mm 860 W/m 17,5 C 26,5 C 4,8 km/h (1 Bft) 100 %
15.06.2017 11:50 26,9 C 26,5 C 26,9 C 61 % 1014,8 hPa 0,0 l/m 0,9 km/h (0 Bft) SW 223 10 min 0,000 mm 870 W/m 18,7 C 26,9 C 6,4 km/h (2 Bft) 100 %
15.06.2017 12:00 26,6 C 26,6 C 26,9 C 61 % 1014,7 hPa 0,0 l/m 2,0 km/h (1 Bft) S 174 10 min 0,510 mm 884 W/m 18,4 C 26,6 C 8,0 km/h (2 Bft) 100 %
15.06.2017 12:10 26,2 C 26,2 C 26,6 C 61 % 1014,7 hPa 0,0 l/m 3,2 km/h (1 Bft) S-SW 208 10 min 0,000 mm 893 W/m 18,1 C 26,2 C 11,3 km/h (2 Bft) 99 %
15.06.2017 12:20 26,3 C 26,1 C 26,3 C 61 % 1014,6 hPa 0,0 l/m 5,3 km/h (1 Bft) S-SW 198 10 min 0,000 mm 921 W/m 18,2 C 26,3 C 12,9 km/h (3 Bft) 97 %
15.06.2017 12:30 26,6 C 26,3 C 26,6 C 59 % 1014,6 hPa 0,0 l/m 2,7 km/h (1 Bft) S-SW 202 10 min 0,000 mm 919 W/m 17,9 C 26,6 C 11,3 km/h (2 Bft) 98 %
15.06.2017 12:40 26,6 C 26,5 C 26,7 C 59 % 1014,6 hPa 0,0 l/m 5,4 km/h (1 Bft) S-SO 148 10 min 0,000 mm 916 W/m 17,9 C 26,6 C 12,9 km/h (3 Bft) 97 %
15.06.2017 12:50 26,4 C 26,4 C 26,6 C 59 % 1014,5 hPa 0,0 l/m 5,6 km/h (1 Bft) S-SW 209 10 min 0,000 mm 916 W/m 17,7 C 26,4 C 14,5 km/h (3 Bft) 98 %
15.06.2017 13:00 26,5 C 26,4 C 26,6 C 62 % 1014,5 hPa 0,0 l/m 8,1 km/h (2 Bft) S-SW 198 10 min 0,000 mm 916 W/m 18,6 C 26,2 C 17,7 km/h (3 Bft) 97 %
15.06.2017 13:10 26,8 C 26,5 C 26,8 C 60 % 1014,6 hPa 0,0 l/m 6,9 km/h (2 Bft) W 261 10 min 0,609 mm 925 W/m 18,4 C 26,7 C 19,3 km/h (3 Bft) 98 %
15.06.2017 13:20 27,2 C 26,8 C 27,2 C 58 % 1014,5 hPa 0,0 l/m 6,5 km/h (2 Bft) S 187 10 min 0,000 mm 914 W/m 18,2 C 27,2 C 14,5 km/h (3 Bft) 98 %
15.06.2017 13:30 27,4 C 27,2 C 27,4 C 62 % 1014,5 hPa 0,0 l/m 4,7 km/h (1 Bft) SW 224 10 min 0,000 mm 923 W/m 19,5 C 27,4 C 19,3 km/h (3 Bft) 97 %
15.06.2017 13:40 27,3 C 27,3 C 27,6 C 61 % 1014,5 hPa 0,0 l/m 5,4 km/h (1 Bft) S-SW 196 10 min 0,000 mm 925 W/m 19,1 C 27,3 C 17,7 km/h (3 Bft) 98 %
15.06.2017 13:50 27,5 C 27,2 C 27,5 C 57 % 1014,4 hPa 0,0 l/m 5,2 km/h (1 Bft) W 259 10 min 0,000 mm 898 W/m 18,2 C 27,5 C 16,1 km/h (3 Bft) 97 %
15.06.2017 14:00 27,9 C 27,5 C 27,9 C 55 % 1014,4 hPa 0,0 l/m 7,7 km/h (2 Bft) SW 225 10 min 0,635 mm 909 W/m 18,0 C 27,7 C 20,9 km/h (4 Bft) 98 %
15.06.2017 14:10 27,9 C 27,9 C 28,0 C 55 % 1014,3 hPa 0,0 l/m 4,4 km/h (1 Bft) W-SW 250 10 min 0,000 mm 907 W/m 18,0 C 27,9 C 14,5 km/h (3 Bft) 97 %
15.06.2017 14:20 28,4 C 27,9 C 28,4 C 50 % 1014,3 hPa 0,0 l/m 7,2 km/h (2 Bft) W-SW 257 10 min 0,000 mm 898 W/m 17,0 C 28,3 C 19,3 km/h (3 Bft) 97 %
15.06.2017 14:30 28,6 C 28,4 C 28,6 C 52 % 1014,3 hPa 0,0 l/m 6,9 km/h (2 Bft) S-SW 203 10 min 0,000 mm 893 W/m 17,8 C 28,5 C 16,1 km/h (3 Bft) 97 %
15.06.2017 14:40 28,7 C 28,6 C 28,7 C 56 % 1014,1 hPa 0,0 l/m 5,5 km/h (1 Bft) W-SW 246 10 min 0,000 mm 882 W/m 19,0 C 28,7 C 16,1 km/h (3 Bft) 98 %
15.06.2017 14:50 28,9 C 28,7 C 28,9 C 51 % 1014,0 hPa 0,0 l/m 5,9 km/h (2 Bft) W-SW 241 10 min 0,000 mm 870 W/m 17,7 C 28,9 C 17,7 km/h (3 Bft) 97 %
15.06.2017 15:00 29,0 C 28,9 C 29,0 C 49 % 1013,8 hPa 0,0 l/m 3,8 km/h (1 Bft) W-SW 251 10 min 0,635 mm 840 W/m 17,2 C 29,0 C 17,7 km/h (3 Bft) 98 %
15.06.2017 15:10 29,1 C 29,0 C 29,1 C 47 % 1013,8 hPa 0,0 l/m 7,6 km/h (2 Bft) NW 312 10 min 0,000 mm 823 W/m 16,6 C 29,0 C 17,7 km/h (3 Bft) 98 %
15.06.2017 15:20 29,3 C 29,1 C 29,3 C 45 % 1013,7 hPa 0,0 l/m 7,0 km/h (2 Bft) W 277 10 min 0,000 mm 232 W/m 16,1 C 29,2 C 19,3 km/h (3 Bft) 97 %
15.06.2017 15:30 29,5 C 29,3 C 29,5 C 46 % 1013,7 hPa 0,0 l/m 5,3 km/h (1 Bft) W-SW 253 10 min 0,000 mm 178 W/m 16,6 C 29,5 C 11,3 km/h (2 Bft) 98 %
15.06.2017 15:40 29,2 C 29,2 C 29,5 C 45 % 1013,5 hPa 0,0 l/m 5,9 km/h (2 Bft) W 263 10 min 0,000 mm 200 W/m 16,0 C 29,2 C 16,1 km/h (3 Bft) 97 %
15.06.2017 15:50 28,9 C 28,9 C 29,2 C 48 % 1013,4 hPa 0,0 l/m 4,8 km/h (1 Bft) SW 215 10 min 0,000 mm 761 W/m 16,8 C 28,9 C 14,5 km/h (3 Bft) 97 %
15.06.2017 16:00 28,8 C 28,8 C 28,9 C 49 % 1013,2 hPa 0,0 l/m 5,8 km/h (2 Bft) S-SW 209 10 min 0,330 mm 735 W/m 17,0 C 28,8 C 12,9 km/h (3 Bft) 98 %
15.06.2017 16:10 28,8 C 28,8 C 28,8 C 47 % 1013,1 hPa 0,0 l/m 3,7 km/h (1 Bft) W-SW 251 10 min 0,000 mm 729 W/m 16,3 C 28,8 C 12,9 km/h (3 Bft) 97 %
15.06.2017 16:20 28,8 C 28,8 C 28,8 C 47 % 1013,0 hPa 0,0 l/m 4,4 km/h (1 Bft) S-SW 198 10 min 0,000 mm 710 W/m 16,3 C 28,8 C 16,1 km/h (3 Bft) 98 %
15.06.2017 16:30 28,8 C 28,7 C 28,8 C 47 % 1013,1 hPa 0,0 l/m 2,7 km/h (1 Bft) W-SW 251 10 min 0,000 mm 359 W/m 16,3 C 28,8 C 11,3 km/h (2 Bft) 100 %
15.06.2017 16:40 28,8 C 28,8 C 28,9 C 46 % 1013,2 hPa 0,0 l/m 5,5 km/h (1 Bft) SW 214 10 min 0,000 mm 165 W/m 16,0 C 28,8 C 20,9 km/h (4 Bft) 100 %
15.06.2017 16:50 29,1 C 28,8 C 29,1 C 45 % 1013,2 hPa 0,0 l/m 2,3 km/h (1 Bft) SW 236 10 min 0,000 mm 188 W/m 15,9 C 29,1 C 17,7 km/h (3 Bft) 100 %
15.06.2017 17:00 29,3 C 29,1 C 29,3 C 49 % 1013,4 hPa 0,0 l/m 2,9 km/h (1 Bft) W-SW 239 10 min 0,331 mm 197 W/m 17,5 C 29,3 C 11,3 km/h (2 Bft) 99 %
15.06.2017 17:10 28,9 C 28,9 C 29,3 C 49 % 1013,2 hPa 0,0 l/m 1,8 km/h (1 Bft) SW 231 0 min 0,000 mm 144 W/m 17,1 C 28,9 C 14,5 km/h (3 Bft) 99 %
15.06.2017 17:20 28,8 C 28,8 C 28,9 C 45 % 1013,0 hPa 0,0 l/m 0,3 km/h (0 Bft) W-NW 297 10 min 0,000 mm 153 W/m 15,7 C 28,8 C 6,4 km/h (2 Bft) 98 %
15.06.2017 17:30 28,7 C 28,7 C 28,8 C 50 % 1013,0 hPa 0,0 l/m 1,3 km/h (1 Bft) W-SW 249 0 min 0,000 mm 123 W/m 17,2 C 28,7 C 14,5 km/h (3 Bft) 98 %
15.06.2017 17:40 28,1 C 28,1 C 28,7 C 51 % 1013,2 hPa 0,0 l/m 0,2 km/h (0 Bft) SW 234 10 min 0,000 mm 209 W/m 17,0 C 28,1 C 8,0 km/h (2 Bft) 99 %
15.06.2017 17:50 27,7 C 27,7 C 28,1 C 49 % 1013,1 hPa 0,0 l/m 0,7 km/h (0 Bft) SW 215 10 min 0,000 mm 160 W/m 16,0 C 27,7 C 9,7 km/h (2 Bft) 100 %
15.06.2017 18:00 27,4 C 27,4 C 27,7 C 54 % 1013,1 hPa 0,0 l/m 0,0 km/h (0 Bft) SW 229 10 min 0,127 mm 204 W/m 17,3 C 27,4 C 1,6 km/h (1 Bft) 99 %
15.06.2017 18:10 27,1 C 27,1 C 27,4 C 57 % 1013,0 hPa 0,0 l/m 0,0 km/h (0 Bft) SW 229 10 min 0,000 mm 155 W/m 17,8 C 27,1 C 1,6 km/h (1 Bft) 100 %
15.06.2017 18:20 26,6 C 26,6 C 27,1 C 59 % 1012,9 hPa 0,0 l/m 0,0 km/h (0 Bft) SW 229 0 min 0,000 mm 134 W/m 17,9 C 26,6 C 0,0 km/h (0 Bft) 99 %
15.06.2017 18:30 26,1 C 26,1 C 26,6 C 61 % 1012,7 hPa 0,0 l/m 0,0 km/h (0 Bft) SW 229 0 min 0,000 mm 130 W/m 18,0 C 26,1 C 0,0 km/h (0 Bft) 99 %
15.06.2017 18:40 25,7 C 25,7 C 26,1 C 59 % 1012,6 hPa 0,0 l/m 0,0 km/h (0 Bft) SW 229 0 min 0,000 mm 90 W/m 17,1 C 25,7 C 1,6 km/h (1 Bft) 91 %
15.06.2017 18:50 25,2 C 25,2 C 25,7 C 63 % 1012,6 hPa 0,0 l/m 0,0 km/h (0 Bft) SW 229 0 min 0,000 mm 51 W/m 17,6 C 25,2 C 0,0 km/h (0 Bft) 99 %
15.06.2017 19:00 24,9 C 24,9 C 25,2 C 62 % 1012,7 hPa 0,0 l/m 0,0 km/h (0 Bft) SW 229 0 min 0,076 mm 33 W/m 17,1 C 24,9 C 0,0 km/h (0 Bft) 100 %
15.06.2017 19:10 24,3 C 24,3 C 24,9 C 67 % 1012,7 hPa 0,0 l/m 0,6 km/h (0 Bft) S 190 0 min 0,000 mm 46 W/m 17,8 C 24,3 C 6,4 km/h (2 Bft) 100 %
15.06.2017 19:20 23,7 C 23,7 C 24,3 C 68 % 1012,4 hPa 0,0 l/m 0,3 km/h (0 Bft) S 171 0 min 0,000 mm 44 W/m 17,4 C 23,7 C 8,0 km/h (2 Bft) 100 %
15.06.2017 19:30 23,6 C 23,6 C 23,7 C 68 % 1012,3 hPa 0,0 l/m 2,3 km/h (1 Bft) S 173 0 min 0,000 mm 33 W/m 17,3 C 23,6 C 16,1 km/h (3 Bft) 100 %
15.06.2017 19:40 23,2 C 23,2 C 23,6 C 70 % 1012,0 hPa 0,0 l/m 0,4 km/h (0 Bft) SO 146 0 min 0,000 mm 19 W/m 17,4 C 23,2 C 8,0 km/h (2 Bft) 100 %
15.06.2017 19:50 23,4 C 23,1 C 23,4 C 67 % 1011,4 hPa 0,0 l/m 1,7 km/h (1 Bft) SO 134 0 min 0,000 mm 11 W/m 16,9 C 23,4 C 11,3 km/h (2 Bft) 100 %
15.06.2017 20:00 23,7 C 23,4 C 23,7 C 67 % 1011,8 hPa 0,0 l/m 0,9 km/h (0 Bft) SO 133 0 min 0,025 mm 25 W/m 17,2 C 23,7 C 14,5 km/h (3 Bft) 100 %
15.06.2017 20:10 23,7 C 23,7 C 23,8 C 71 % 1011,5 hPa 0,0 l/m 0,0 km/h (0 Bft) SO 129 0 min 0,000 mm 35 W/m 18,1 C 23,7 C 0,0 km/h (0 Bft) 100 %
15.06.2017 20:20 22,9 C 22,9 C 23,7 C 74 % 1012,1 hPa 0,0 l/m 3,2 km/h (1 Bft) W-SW 254 0 min 0,000 mm 37 W/m 18,0 C 22,9 C 14,5 km/h (3 Bft) 99 %
15.06.2017 20:30 22,7 C 22,7 C 22,9 C 75 % 1012,6 hPa 0,0 l/m 1,1 km/h (1 Bft) W-SW 240 0 min 0,000 mm 32 W/m 18,0 C 22,7 C 8,0 km/h (2 Bft) 100 %
15.06.2017 20:40 22,7 C 22,7 C 22,7 C 74 % 1012,6 hPa 0,0 l/m 1,4 km/h (1 Bft) W-SW 240 0 min 0,000 mm 21 W/m 17,8 C 22,7 C 12,9 km/h (3 Bft) 100 %
15.06.2017 20:50 22,7 C 22,7 C 22,7 C 74 % 1012,9 hPa 0,0 l/m 3,7 km/h (1 Bft) W 281 0 min 0,000 mm 14 W/m 17,8 C 22,7 C 9,7 km/h (2 Bft) 100 %
15.06.2017 21:00 22,8 C 22,7 C 22,8 C 74 % 1013,0 hPa 0,0 l/m 4,4 km/h (1 Bft) W 264 0 min 0,026 mm 14 W/m 17,9 C 22,8 C 11,3 km/h (2 Bft) 100 %
15.06.2017 21:10 22,8 C 22,8 C 22,8 C 74 % 1012,9 hPa 0,0 l/m 3,2 km/h (1 Bft) W 270 0 min 0,000 mm 30 W/m 17,9 C 22,8 C 9,7 km/h (2 Bft) 97 %
15.06.2017 21:20 22,8 C 22,8 C 22,8 C 75 % 1013,0 hPa 0,0 l/m 4,8 km/h (1 Bft) W-SW 247 0 min 0,000 mm 30 W/m 18,1 C 22,8 C 9,7 km/h (2 Bft) 98 %
15.06.2017 21:30 22,6 C 22,6 C 22,8 C 76 % 1012,8 hPa 0,0 l/m 6,4 km/h (2 Bft) W-SW 247 0 min 0,000 mm 19 W/m 18,1 C 22,6 C 16,1 km/h (3 Bft) 98 %
15.06.2017 21:40 22,5 C 22,5 C 22,7 C 77 % 1012,7 hPa 0,0 l/m 8,0 km/h (2 Bft) SW 225 0 min 0,000 mm 11 W/m 18,3 C 22,0 C 17,7 km/h (3 Bft) 97 %
15.06.2017 21:50 22,2 C 22,2 C 22,5 C 79 % 1012,6 hPa 0,0 l/m 8,0 km/h (2 Bft) S-SW 202 0 min 0,000 mm 0 W/m 18,4 C 21,7 C 16,1 km/h (3 Bft) 98 %
15.06.2017 22:00 21,9 C 21,9 C 22,2 C 80 % 1012,7 hPa 0,0 l/m 8,0 km/h (2 Bft) SW 225 0 min 0,025 mm 0 W/m 18,3 C 21,3 C 17,7 km/h (3 Bft) 97 %
15.06.2017 22:10 21,7 C 21,7 C 21,9 C 81 % 1013,1 hPa 0,0 l/m 8,0 km/h (2 Bft) SW 225 0 min 0,000 mm 0 W/m 18,3 C 21,1 C 17,7 km/h (3 Bft) 98 %
15.06.2017 22:20 21,6 C 21,6 C 21,7 C 81 % 1013,0 hPa 0,0 l/m 11,3 km/h (2 Bft) S-SW 202 0 min 0,000 mm 0 W/m 18,2 C 20,1 C 20,9 km/h (4 Bft) 98 %
15.06.2017 22:30 21,6 C 21,6 C 21,6 C 81 % 1013,0 hPa 0,0 l/m 12,9 km/h (3 Bft) S-SW 202 0 min 0,000 mm 0 W/m 18,2 C 19,7 C 20,9 km/h (4 Bft) 97 %
15.06.2017 22:40 21,4 C 21,4 C 21,6 C 82 % 1012,9 hPa 0,0 l/m 9,7 km/h (2 Bft) S-SW 202 0 min 0,000 mm 0 W/m 18,2 C 20,3 C 16,1 km/h (3 Bft) 97 %
15.06.2017 22:50 21,2 C 21,2 C 21,4 C 81 % 1013,0 hPa 0,0 l/m 8,0 km/h (2 Bft) S-SW 202 0 min 0,000 mm 0 W/m 17,8 C 20,6 C 19,3 km/h (3 Bft) 97 %
15.06.2017 23:00 21,1 C 21,1 C 21,2 C 81 % 1013,1 hPa 0,0 l/m 1,6 km/h (1 Bft) SW 225 0 min 0,025 mm 0 W/m 17,7 C 21,1 C 8,0 km/h (2 Bft) 98 %
15.06.2017 23:10 21,1 C 21,1 C 21,1 C 80 % 1013,1 hPa 0,0 l/m 3,2 km/h (1 Bft) SW 225 0 min 0,000 mm 0 W/m 17,5 C 21,1 C 12,9 km/h (3 Bft) 96 %
15.06.2017 23:20 21,1 C 21,0 C 21,1 C 78 % 1013,1 hPa 0,0 l/m 4,8 km/h (1 Bft) W 270 0 min 0,000 mm 0 W/m 17,1 C 21,1 C 16,1 km/h (3 Bft) 97 %
15.06.2017 23:30 21,2 C 21,1 C 21,2 C 78 % 1013,2 hPa 0,0 l/m 4,8 km/h (1 Bft) W 270 0 min 0,000 mm 0 W/m 17,2 C 21,2 C 16,1 km/h (3 Bft) 97 %
15.06.2017 23:40 21,2 C 21,2 C 21,3 C 78 % 1013,3 hPa 0,0 l/m 8,0 km/h (2 Bft) W 270 0 min 0,000 mm 0 W/m 17,2 C 20,6 C 17,7 km/h (3 Bft) 97 %
15.06.2017 23:50 21,1 C 21,1 C 21,2 C 78 % 1013,3 hPa 0,0 l/m 11,3 km/h (2 Bft) W-SW 247 0 min 0,000 mm 0 W/m 17,1 C 19,5 C 25,7 km/h (4 Bft) 98 %
_ Min-Zeit 05:40 05:40 05:50 15:20 19:50 - 00:00 - - - - - 05:40 05:40 00:00 04:40
Minimum _ 12,1 C 12,1 C 12,1 C 45 % 1011,4 hPa - 0,0 km/h (0 Bft) - - - - - 10,3 C 12,1 C 0,0 km/h (0 Bft) 91 %
_ Max-Zeit 15:30 15:30 15:30 05:50 02:20 00:00 22:30 - - 08:20 14:00 13:10 13:30 15:30 23:50 00:00
Maximum _ 29,5 C 29,3 C 29,5 C 90 % 1014,9 hPa 0,0 l/m 12,9 km/h
S-SW (3 Bft)
- - 10 min 0,635 mm 925 W/m 19,5 C 29,5 C 25,7 km/h
W-SW (4 Bft)
100 %
Durchschnitt _ 20,9 C 20,8 C 21,0 C 72 % 1014,0 hPa #0,0 l/m 2,4 km/h (1 Bft) W-SW - #9:40 h #4,470 mm 403 W/m 15,2 C 20,8 C 7,5 km/h (2 Bft) 99 %
PRIVATE WETTERSTATION BILLIGHEIM-ALLFELD - www.neckar-odenwald-wetter.de - Holger Sonntag